RH
29 26 26 34 47 44 40 39 41 43 48 43 39 46 47 49 48 42 49 60 55 50 57 53 56 50 51 54 71 75 75 77 74 73 63 55 47 44 50 50 55 67 74 69
35 29 26 37 45 34 32 33 36 42 45 38 42 49 48 37 34 31 37 40 45 41 44 47 48 49 47 44 45 57 57 66 57 49 42 39 38 43 47 54 61 63 65 66
35 29 36 35 39 32 32 38 45 50 47 46 43 48 45 43 44 41 39 38 37 37 41 42 45 44 42 41 43 45 54 55 51 46 48 48 48 48 49 57 57 59 63 67
36 29 40 39 33 38 40 45 47 40 42 50 41 48 48 46 48 44 52 43 35 34 38 40 42 43 42 38 42 50 51 55 53 54 57 51 50 50 53 56 63 61 60 63
32 31 32 36 29 35 37 38 43 39 40 43 54 51 44 46 47 52 54 49 45 42 38 44 46 46 45 43 42 44 49 52 52 54 60 58 55 55 54 60 64 72 70 72
34 32 29 32 33 31 35 38 38 37 40 46 48 42 48 51 43 41 50 50 47 49 49 48 46 46 49 52 51 47 47 52 55 62 64 67 68 71 73 76 79 83 84 75
37 31 32 33 32 36 35 40 46 57 52 51 50 49 37 42 38 37 41 48 46 46 49 51 51 50 49 51 52 50 50 50 58 63 68 68 69 73 72 75 74 76 80 76
42 35 26 32 31 34 36 40 52 85 66 53 54 36 26 37 33 28 27 31 42 44 49 52 55 54 51 51 52 55 53 52 59 63 63 68 72 73 74 75 74 73 73 66
44 32 27 33 31 35 43 39 38 57 62 61 47 47 34 39 34 29 29 35 40 40 42 49 53 57 54 52 49 52 55 56 58 61 64 62 65 68 68 69 66 66 64 65
45 42 33 33 36 29 41 51 46 47 58 60 40 40 49 46 41 40 31 34 32 34 37 41 53 58 60 56 50 49 53 56 60 60 59 62 64 67 69 64 70 73 67 68
42 45 40 40 35 34 31 41 50 46 45 50 55 52 50 46 42 42 37 36 36 35 32 34 45 57 65 64 70 69 55 63 67 65 60 62 67 67 70 69 69 71 73 79
43 46 47 46 35 35 37 35 40 49 47 58 59 56 43 44 44 43 42 35 35 36 36 33 30 37 48 61 67 66 62 62 68 69 67 71 72 79 81 78 79 79 83 82
47 44 52 53 46 43 32 36 43 39 39 46 63 50 41 41 39 34 38 34 34 34 34 38 33 30 30 36 46 59 62 60 57 66 73 77 72 73 73 75 74 75 76 74
53 48 45 51 51 40 39 35 48 53 55 51 45 47 46 47 43 42 39 46 55 49 41 36 37 36 29 26 30 39 45 48 53 57 60 64 72 71 68 70 77 76 77 82
57 59 51 49 44 47 41 38 36 41 45 50 52 47 41 44 41 43 46 54 45 54 51 39 38 45 43 35 33 34 35 38 42 45 53 61 66 65 76 81 82 84 83 79
56 61 56 55 47 45 47 48 41 35 35 39 41 42 40 41 39 45 45 43 43 42 45 41 37 44 49 42 41 47 47 50 51 59 61 64 68 77 80 84 83 83 80 73
59 57 50 53 52 49 47 47 43 39 41 40 40 37 35 46 44 41 42 40 37 37 37 43 41 45 41 44 42 41 47 52 56 61 65 72 78 80 80 80 76 73 68 62
67 60 52 67 61 59 43 39 39 40 37 37 38 36 36 36 38 44 40 40 38 32 28 24 30 38 39 40 41 40 45 51 59 64 66 68 72 72 69 65 63 56 53 54
72 67 76 69 64 49 42 42 44 39 34 36 36 35 43 46 49 43 40 37 32 27 28 29 33 36 36 36 35 41 47 52 54 55 58 62 63 61 59 54 50 50 54 57
74 72 77 82 66 64 52 42 42 41 43 37 31 37 41 45 51 46 40 32 28 29 31 33 36 38 40 40 40 41 43 46 50 53 55 56 57 55 48 48 52 55 57 60
78 82 77 75 81 65 53 45 44 48 47 33 34 39 45 45 47 37 36 35 35 36 34 35 38 40 42 42 42 43 44 47 50 52 55 54 48 48 48 53 56 57 58 59
78 82 84 77 81 72 57 53 52 41 43 44 46 44 42 44 42 38 37 37 40 44 46 45 43 43 42 43 44 45 47 50 53 54 50 47 48 50 52 55 57 58 60 60
77 93 81 72 68 60 57 60 63 60 55 53 54 52 51 48 44 46 46 45 49 48 49 51 52 50 49 49 48 48 49 52 52 49 48 49 52 54 57 60 63 59 59 60
65 67 80 73 70 75 72 67 64 61 61 59 58 54 53 55 52 51 49 48 51 54 56 58 58 57 54 54 53 51 52 53 54 53 55 58 62 65 65 63 61 61 63 63
55 60 61 62 59 62 68 66 72 69 64 60 58 56 58 58 57 58 56 53 56 61 62 62 63 64 61 60 58 57 57 59 59 63 69 74 74 73 69 68 66 64 63 61
51 49 56 62 49 53 54 56 57 63 67 67 64 63 65 65 63 64 62 59 61 63 66 68 68 67 65 62 64 66 65 64 69 74 78 81 78 75 74 73 67 64 64 63